Flag for Paraguay Weather past 2 weeks in Asuncion, Paraguay

Now
77 °F

Light rain. Mostly cloudy.


Feels Like: 78 °F
Forecast: 75 / 89 °F
Wind: 2 mph from East

Location: Asuncion / Aeropuerto

Current Time: Jan 29, 2015 at 7:59:11 AM

Latest Report: Jan 29, 2015 at 7:00 AM


Visibility: N/A

Pressure: 29.80 "Hg

Humidity: 94%

Dew point: 75 °F

Location of AsuncionLocation

Historic Weather in Asuncion — Graph

°F

Asuncion temperature yesterday

Maximum temperature yesterday: 91 °F (at 1:00 PM)
Minimum temperature yesterday: 75 °F (at 5:00 AM)
Average temperature yesterday: 81 °F

Past Weeks' High & Low Weather Summary

 TemperatureHumidityPressure
High97 °F (Jan 14, 2:00 PM)100% (Jan 14, 9:00 PM)30.04 "Hg (Jan 14, 9:00 PM)
Low68 °F (Jan 25, 7:00 PM)12% (Jan 17, 3:00 PM)29.68 "Hg (Jan 28, 5:00 PM)
Average81 °F77%29.87 "Hg
* Reported Jan 14 7:00 AM — Jan 29 7:00 AM, Asuncion, Weather by CustomWeather, © 2014

Note: Actual official high and low records may vary slightly from our data, if they occured in-between our weather recording intervals... More about our weather records

Advertising

Asuncion weather history for previous 24 hours

 ConditionsComfort  
Time TempWeatherWind HumidityBarometerVisibility
7:00 AM
Jan 29
77 °FLight rain. Mostly cloudy.2 mph94%29.80 "HgN/A
6:00 AM77 °FThunderstorms. Mostly cloudy.3 mph94%29.77 "HgN/A
5:00 AM77 °FThunderstorms. Mostly cloudy.5 mph94%29.77 "HgN/A
4:00 AM77 °FThunderstorms. Partly cloudy.3 mph94%29.77 "HgN/A
3:00 AM77 °FThunderstorms. Mostly cloudy.No wind94%29.77 "HgN/A
1:00 AM77 °FThunderstorms. Passing clouds.3 mph89%29.77 "HgN/A
12:00 AM77 °FThunderstorms. Passing clouds.3 mph89%29.77 "HgN/A
11:00 PM
Jan 28
77 °FThunderstorms. Passing clouds.3 mph89%29.77 "HgN/A
10:00 PM77 °FThunderstorms. Passing clouds.No wind89%29.77 "HgN/A
9:00 PM79 °FThunderstorms. Passing clouds.2 mph79%29.71 "HgN/A
8:00 PM82 °FThunderstorms. Overcast.5 mph84%29.68 "HgN/A
7:00 PM84 °FBroken clouds.No wind79%29.68 "HgN/A
6:00 PM84 °FBroken clouds.2 mph74%29.68 "HgN/A
5:00 PM82 °FPartly sunny.2 mph79%29.68 "HgN/A
4:00 PM81 °FThunderstorms. Partly sunny.3 mph79%29.71 "HgN/A
3:00 PM79 °FThunderstorms. Partly sunny.6 mph79%29.74 "Hg6 mi
2:00 PM82 °FThunderstorms. Partly sunny.12 mph79%29.74 "Hg1 mi
1:00 PM91 °FPartly sunny.10 mph63%29.77 "HgN/A
12:00 PM88 °FPartly sunny.8 mph66%29.80 "HgN/A
11:00 AM84 °FPartly sunny.10 mph74%29.80 "HgN/A
10:30 AM84 °FPartly sunny.10 mph74%29.80 "HgN/A
10:00 AM82 °FPartly sunny.10 mph79%29.80 "HgN/A
9:30 AM82 °FPartly sunny.5 mph79%29.80 "HgN/A
9:00 AM79 °FPartly sunny.13 mph84%29.80 "HgN/A
8:30 AM79 °FBroken clouds.10 mph84%29.80 "HgN/A
Weather by CustomWeather, © 2014

See weather overviewHow to use our weather pages